Location: Bowman Observatory
(41.0326°N, 73.6210°W)
Time: 20:55:00
(UTC-04:00)

Cosmos 2297 - Visible Passes

Search period start: 15 September 2014 00:00
Search period end: 25 September 2014 00:00
Orbit: 835 x 860 km, 71.0° (Epoch: 14 September)

Date Brightness Start Highest point End Pass type
(mag) Time Alt. Az. Time Alt. Az. Time Alt. Az.
15 Sep 6.6 01:52:56 10° NNE 01:54:12 11° NE 01:55:28 10° NE visible
15 Sep 4.1 03:33:59 10° NNW 03:39:39 60° ENE 03:40:12 57° E visible
15 Sep 5.1 05:19:25 10° WNW 05:21:47 17° W 05:21:47 17° W visible
15 Sep 6.7 20:14:58 10° WNW 20:16:56 12° NW 20:18:55 10° NNW visible
16 Sep 6.6 01:39:52 10° NNE 01:40:57 11° NE 01:42:01 10° NE visible
16 Sep 5.0 03:20:45 10° NNW 03:24:06 35° N 03:24:06 35° N visible
16 Sep 6.7 20:01:36 10° WNW 20:03:41 12° NW 20:05:46 10° NNW visible
17 Sep 6.6 01:26:52 10° NNE 01:27:38 10° NE 01:27:38 10° NE visible
17 Sep 5.6 03:07:32 10° NNW 03:09:28 22° N 03:09:28 22° N visible
17 Sep 6.6 19:48:15 10° WNW 19:50:26 12° NW 19:52:37 10° NNW visible
18 Sep 6.0 02:54:18 10° NNW 02:55:20 16° NNW 02:55:20 16° NNW visible
18 Sep 6.6 19:34:53 10° WNW 19:37:11 12° NW 19:39:28 10° NNW visible
19 Sep 6.3 02:41:05 10° NNW 02:41:28 12° NNW 02:41:28 12° NNW visible
19 Sep 6.5 19:21:33 10° WNW 19:23:55 13° NW 19:26:19 10° NNW visible
